Andover, NJ

9:59 PM EST on February 11, 2016 (GMT -0500)
Andover

Weather History for K12N - February, 2013

Change the Weather History Date:

Thursday, February 21, 2013

  Actual Average (KMMU) Record (KMMU)
Temperature  
Mean Temperature 24 °F -  
Max Temperature 30 °F 43 °F - (-1)
Min Temperature 19 °F 21 °F - (-1)
Degree Days  
Heating Degree Days 40    
Moisture  
Dew Point 10 °F    
Average Humidity 55    
Maximum Humidity 68    
Minimum Humidity 46    
Precipitation  
Precipitation 0.00 in - - ()
Sea Level Pressure  
Sea Level Pressure 30.13 in    
Wind  
Wind Speed 8 mph (NNW)    
Max Wind Speed 12 mph    
Max Gust Speed 25 mph    
Averages and records for this station are not official NWS values.
T = Trace of Precipitation, MM = Missing Value Source: NWS Daily Summary

Daily Weather History Graph

Daily Weather History Graph

Search for Another Location

Airport or City:

Trip Planner

Search our weather history database for the weather conditions in past years. The results will help you decide how hot, cold, wet, or windy it might be!

Date:

Astronomy

Feb. 21, 2013 Rise Set
Actual Time 6:44 AM EST 5:40 PM EST
Civil Twilight 6:16 AM EST 6:08 PM EST
Nautical Twilight 5:44 AM EST 6:40 PM EST
Astronomical Twilight 5:13 AM EST 7:12 PM EST
Moon 1:52 PM EST (2/21) 3:48 AM EST (2/21)
Length of Visible Light 11h 51m
Length of Day
10h 56m
Waxing Gibbous, 83% of the Moon is Illuminated
Feb 21
Waxing Gibbous
Feb 25
Full
Mar 4
Last Quarter
Mar 11
New
Mar 19
First Quarter

Hourly Weather History & Observations

Time (EST) Temp. Windchill Dew Point Humidity Pressure Visibility Wind Dir Wind Speed Gust Speed Precip Events Conditions
12:54 AM 23.0 °F 12.4 °F 9.0 °F 55% 30.02 in - NNW 10.4 mph 20.7 mph N/A   Unknown
1:54 AM 23.0 °F 15.8 °F 9.0 °F 55% 30.01 in - Variable 5.8 mph - N/A   Unknown
2:54 AM 23.0 °F 15.8 °F 9.0 °F 55% 30.01 in - Variable 5.8 mph - N/A   Unknown
3:54 AM 23.0 °F 14.7 °F 10.0 °F 58% 30.01 in - Variable 6.9 mph - N/A   Unknown
4:54 AM 23.0 °F 13.1 °F 10.0 °F 58% 30.03 in - WNW 9.2 mph - N/A   Unknown
5:54 AM 23.0 °F 15.8 °F 9.0 °F 55% 30.04 in - Variable 5.8 mph - N/A   Unknown
6:54 AM 23.0 °F 17.0 °F 9.0 °F 55% 30.04 in - Variable 4.6 mph - N/A   Unknown
7:54 AM 24.1 °F 18.2 °F 9.0 °F 53% 30.06 in - WNW 4.6 mph - N/A   Unknown
8:54 AM 24.1 °F 17.0 °F 9.0 °F 53% 30.07 in - Variable 5.8 mph - N/A   Unknown
9:54 AM 25.0 °F 14.2 °F 8.1 °F 49% 30.07 in - West 11.5 mph 19.6 mph N/A   Unknown
10:54 AM 27.0 °F 17.3 °F 9.0 °F 47% 30.08 in - North 10.4 mph 19.6 mph N/A   Unknown
11:54 AM 27.0 °F 17.3 °F 10.9 °F 51% 30.09 in - NW 10.4 mph 23.0 mph N/A   Unknown
12:54 PM 28.0 °F 20.0 °F 12.0 °F 51% 30.07 in - NW 8.1 mph 16.1 mph N/A   Unknown
1:54 PM 28.9 °F 19.8 °F 12.0 °F 49% 30.08 in - NNW 10.4 mph 21.9 mph N/A   Unknown
2:54 PM 30.9 °F 23.5 °F 12.0 °F 46% 30.09 in - NNW 8.1 mph 20.7 mph N/A   Unknown
3:54 PM 30.9 °F 23.5 °F 12.0 °F 46% 30.11 in - North 8.1 mph 19.6 mph N/A   Unknown
4:54 PM 28.9 °F 21.1 °F 12.0 °F 49% 30.14 in - North 8.1 mph 25.3 mph N/A   Unknown
5:54 PM 26.1 °F 19.4 °F 12.0 °F 55% 30.19 in - Variable 5.8 mph - N/A   Unknown
6:54 PM 23.0 °F 13.1 °F 10.9 °F 60% 30.23 in - North 9.2 mph 17.3 mph N/A   Unknown
7:54 PM 21.9 °F 17.2 °F 10.0 °F 60% 30.31 in - Variable 3.5 mph - N/A   Unknown
8:54 PM 21.9 °F 11.7 °F 10.0 °F 60% 30.35 in - North 9.2 mph 18.4 mph N/A   Unknown
9:54 PM 21.0 °F 9.9 °F 10.9 °F 65% 30.34 in - North 10.4 mph 18.4 mph N/A   Unknown
10:54 PM 19.9 °F 13.4 °F 10.9 °F 68% 30.34 in - Variable 4.6 mph - N/A   Unknown
11:54 PM 19.9 °F - 10.9 °F 68% 30.34 in - Calm Calm - N/A   Unknown